Atlantic - Newfoundland: Past 24 Hour Conditions

 

Banquereau - 44139

08:00 PM ADT 22 October 2014Buoy position: 44.27N 57.08W
This table is a summary of hourly weather conditions for the past 24 hours.
Date / Time
(ADT)
Wind(knots) Wave height(m) Wave period(s) Pressure(kPa) Air tempC) Water tempC)
22 October 2014
20:00 E 18 gust 21 1.9 6.0 102.7 14 14
19:00 E 18 gust 19 1.8 5.0 102.7 14 14
18:00 E 18 gust 19 2.0 5.0 102.7 14 14
17:00 E 16 gust 21 2.0 5.0 102.7 14 14
16:00 E 19 gust 23 1.8 N/A 102.6 14 14
15:00 E 19 gust 23 1.7 4.0 102.6 14 14
14:00 E 18 gust 21 1.6 9.0 102.7 14 14
13:00 E 16 gust 19 1.5 9.0 102.8 14 14
12:00 E 18 gust 19 1.5 9.0 102.9 14 14
11:00 E 14 gust 16 1.3 8.0 102.9 14 14
10:00 E 16 gust 18 1.3 9.0 102.9 14 14
9:00 E 14 gust 16 1.3 9.0 102.9 14 14
8:00 E 14 gust 18 1.3 10.0 102.8 13 14
7:00 ENE 12 gust 16 1.3 10.0 102.8 13 14
6:00 ENE 12 gust 12 1.4 9.0 102.8 13 14
5:00 ENE 10 gust 12 1.6 10.0 102.8 13 14
4:00 ENE 8 gust 10 1.8 9.0 102.7 13 14
3:00 ENE 8 gust 10 2.0 9.0 102.7 13 14
2:00 E 6 gust 8 1.9 9.0 102.7 13 14
1:00 E 6 gust 8 2.0 9.0 102.7 13 14
0:00 E 4 gust 6 1.9 8.0 102.7 13 14
21 October 2014
23:00 E 2 gust 4 2.1 10.0 102.7 13 14
22:00 calm 1.9 9.0 102.7 13 14
21:00 calm 1.9 10.0 102.7 13 14
20:00 NW 2 gust 4 2.1 8.0 102.6 13 14
 
Map of Atlantic - Newfoundland marine weather areas Southwestern Grand Banks - 44138 Banquereau - 44139 Tail of the Bank - 44140 Nickerson Bank - 44251 Northeast Burgeo Bank - 44255 Blanc-Sablon Airport Cap Whittle Chevery Natashquan Airport Heath Point Miscou Island Grand Étang Ingonish Beach North Mountain St.Paul Island J.A. Douglas McCurdy Sydney Airport Charlottetown Airport East Point North Cape Argentia Bonavista Burgeo Cape Race Corner Brook Daniel's Harbour Englee Ferolle Point La Scie Port aux Basques Rocky Harbour Sagona Island St. Anthony Airport St. John's Int'l Airport St. Lawrence Stephenville Airport Twillingate Winterland Wreckhouse Cartwright Airport Mary's Harbour Grates Cove Pool's Island Marticot Island Long Pond Îles de la Madeleine Airport
Legend: buoyBuoy land stationLand Station